Voltar ao catálogo

SL-12 R/B(2)

AtivoMEO
NORAD 23401·ROCKET BODY·🇷🇺 Russia

Lançado Nov 20, 1994 de Baikonur Cosmodrome

Loading…

Próximas Passagens (próximas 24 horas)

TLE

AtualizadoSource: Space-Track

Época: Sep 7, 2026, 10:22 UTC

1 23401U 94076F   26250.43263084  .00000029  00000-0  00000-0 0  9992
2 23401  64.9336  64.1929 0010961 287.9418  69.5546  2.13556086247969

Acompanhe SL-12 R/B(2) em tempo real com AllMySat

Download on the App Store